Total_Precipitation_Accumulation
0.99 1.02 0.93 1.07 1.13 1.12 1.12 1.10 1.01 0.95 0.92 0.79 0.77 0.74 0.66 0.50 0.48 0.51 0.65 0.51 0.58 0.77 0.84 0.77 0.67 0.56 0.49 0.51 0.61 0.74 0.81 0.78 0.85 0.94 0.86 0.81 0.74 0.62 0.52 0.40 0.32 0.29 0.24
0.88 1.05 0.98 0.97 1.04 1.22 1.27 1.20 1.09 1.09 1.06 0.87 0.82 0.88 0.78 0.66 0.63 0.63 0.72 0.60 0.40 0.42 0.60 0.72 0.72 0.63 0.55 0.56 0.63 0.78 0.89 0.80 0.75 0.81 0.86 0.88 0.85 0.70 0.59 0.46 0.38 0.34 0.31
0.82 0.99 0.95 0.85 0.83 0.99 1.16 1.27 1.29 1.22 1.08 0.95 0.86 0.87 0.78 0.72 0.69 0.80 0.80 0.74 0.55 0.34 0.39 0.56 0.64 0.63 0.61 0.66 0.70 0.76 0.85 0.80 0.77 0.80 0.87 0.86 0.82 0.80 0.72 0.61 0.53 0.54 0.54
0.61 0.80 0.87 0.78 0.78 0.94 1.14 1.29 1.37 1.39 1.25 1.18 1.13 0.98 0.86 0.78 0.73 0.80 0.83 0.82 0.79 0.60 0.51 0.44 0.47 0.52 0.59 0.65 0.74 0.77 0.80 0.77 0.73 0.75 0.80 0.73 0.65 0.65 0.63 0.65 0.65 0.65 0.69
0.53 0.73 0.91 0.94 0.94 1.03 1.14 1.19 1.35 1.39 1.41 1.31 1.19 1.02 0.90 0.85 0.75 0.70 0.80 0.84 0.87 0.80 0.74 0.51 0.37 0.36 0.46 0.59 0.68 0.73 0.80 0.73 0.63 0.63 0.59 0.55 0.52 0.53 0.54 0.56 0.58 0.55 0.59
0.65 0.84 1.06 1.15 1.26 1.27 1.28 1.42 1.67 1.64 1.46 1.40 1.31 1.08 0.87 0.83 0.79 0.75 0.71 0.80 0.91 0.87 0.76 0.65 0.52 0.32 0.32 0.45 0.62 0.67 0.79 0.79 0.68 0.66 0.59 0.49 0.43 0.46 0.48 0.46 0.47 0.45 0.45
0.79 1.00 1.21 1.44 1.56 1.43 1.41 1.57 1.81 1.94 1.73 1.56 1.53 1.35 1.12 0.89 0.82 0.81 0.76 0.83 0.93 0.95 0.88 0.85 0.73 0.60 0.46 0.37 0.39 0.51 0.71 0.81 0.77 0.76 0.75 0.65 0.51 0.44 0.43 0.38 0.37 0.37 0.38
0.90 0.95 1.15 1.35 1.42 1.45 1.47 1.55 1.71 1.98 1.89 1.70 1.74 1.96 1.71 1.38 0.92 0.71 0.79 0.86 0.97 0.98 0.89 0.78 0.77 0.74 0.66 0.63 0.35 0.28 0.43 0.68 0.83 0.78 0.78 0.77 0.63 0.48 0.43 0.39 0.37 0.35 0.35
1.19 1.16 1.19 1.32 1.40 1.52 1.52 1.55 1.58 1.74 1.85 1.79 1.82 2.21 2.02 1.75 1.56 1.04 0.79 0.88 1.00 1.06 1.00 0.92 0.89 0.86 0.76 0.74 0.63 0.34 0.26 0.38 0.65 0.77 0.80 0.81 0.71 0.56 0.47 0.45 0.44 0.39 0.36
1.50 1.47 1.47 1.56 1.50 1.48 1.44 1.45 1.45 1.58 1.84 1.88 1.82 1.77 1.71 1.69 1.89 1.59 1.08 0.93 0.96 0.97 1.01 0.93 0.94 0.99 1.00 0.89 0.81 0.58 0.33 0.29 0.49 0.74 0.90 0.86 0.73 0.62 0.54 0.53 0.53 0.49 0.43
2.08 2.00 1.92 1.77 1.59 1.50 1.50 1.52 1.53 1.58 1.66 1.73 1.70 1.65 1.64 1.58 1.41 1.49 1.42 1.16 1.00 0.92 0.94 0.97 0.99 1.01 1.11 1.11 1.00 0.77 0.52 0.33 0.37 0.61 0.86 0.96 0.88 0.74 0.62 0.55 0.53 0.52 0.45
2.03 1.97 1.84 1.61 1.44 1.37 1.43 1.53 1.56 1.59 1.57 1.59 1.57 1.46 1.45 1.44 1.35 1.42 1.34 1.31 1.31 1.00 0.86 0.85 0.90 0.92 0.95 1.10 1.07 1.14 0.81 0.51 0.38 0.46 0.64 0.82 0.92 0.94 0.85 0.72 0.60 0.56 0.51
1.42 1.45 1.45 1.41 1.35 1.29 1.36 1.53 1.61 1.64 1.64 1.59 1.52 1.42 1.45 1.36 1.42 1.59 1.56 1.43 1.36 1.05 0.82 0.71 0.73 0.81 0.84 0.95 1.10 1.31 1.08 0.79 0.53 0.41 0.46 0.58 0.64 0.79 0.95 0.98 0.92 0.83 0.78
1.24 1.25 1.32 1.32 1.31 1.32 1.33 1.39 1.50 1.62 1.64 1.57 1.53 1.57 1.52 1.38 1.45 1.47 1.47 1.57 1.41 1.17 0.89 0.64 0.60 0.66 0.78 0.82 1.03 1.26 0.92 0.85 0.67 0.51 0.44 0.46 0.48 0.48 0.59 0.80 1.02 1.13 1.16
0.93 1.04 1.14 1.20 1.16 1.17 1.21 1.30 1.43 1.49 1.57 1.64 1.62 1.61 1.60 1.53 1.53 1.51 1.60 1.61 1.55 1.31 1.04 0.77 0.64 0.56 0.67 0.74 0.97 0.95 0.81 0.84 0.74 0.59 0.49 0.43 0.41 0.37 0.40 0.47 0.58 0.71 0.85
0.82 0.89 0.86 0.82 0.81 0.86 0.89 0.99 1.16 1.25 1.28 1.37 1.39 1.43 1.45 1.46 1.52 1.53 1.57 1.63 1.59 1.43 1.24 1.00 0.81 0.69 0.73 0.71 0.83 0.78 0.82 1.00 0.85 0.67 0.53 0.45 0.39 0.36 0.33 0.31 0.32 0.34 0.39
0.52 0.60 0.55 0.52 0.58 0.62 0.59 0.68 0.78 0.89 0.98 1.03 1.04 1.07 1.14 1.20 1.29 1.34 1.45 1.52 1.55 1.48 1.22 1.08 0.93 0.81 0.83 0.83 0.84 0.80 0.87 0.90 0.82 0.75 0.60 0.48 0.43 0.37 0.34 0.33 0.29 0.28 0.29
0.22 0.29 0.32 0.32 0.40 0.51 0.52 0.58 0.63 0.65 0.71 0.75 0.78 0.85 0.90 0.97 1.06 1.14 1.21 1.30 1.42 1.45 1.35 1.19 1.05 0.91 0.81 0.82 0.97 1.02 1.01 0.94 0.92 1.00 0.88 0.70 0.61 0.51 0.41 0.35 0.32 0.29 0.28
0.16 0.20 0.23 0.26 0.29 0.39 0.50 0.56 0.58 0.54 0.53 0.52 0.52 0.56 0.65 0.74 0.85 0.93 0.99 1.07 1.20 1.26 1.34 1.24 1.16 1.07 0.91 0.83 0.95 0.97 1.04 1.21 1.13 1.19 1.29 1.08 0.84 0.69 0.57 0.49 0.41 0.36 0.33
0.16 0.15 0.14 0.16 0.24 0.34 0.43 0.51 0.55 0.52 0.49 0.49 0.49 0.50 0.53 0.54 0.60 0.70 0.84 1.02 1.17 1.30 1.35 1.28 1.23 1.18 1.10 0.99 1.03 1.09 1.17 1.26 1.32 1.20 1.21 1.17 1.08 0.97 0.81 0.68 0.61 0.53 0.48
0.12 0.08 0.06 0.08 0.16 0.21 0.26 0.40 0.45 0.45 0.48 0.45 0.47 0.51 0.52 0.48 0.47 0.51 0.52 0.70 0.91 1.13 1.26 1.32 1.32 1.33 1.26 1.18 1.06 1.11 1.22 1.36 1.48 1.48 1.37 1.23 1.17 1.03 0.93 0.83 0.74 0.68 0.63
0.09 0.07 0.05 0.05 0.07 0.08 0.14 0.21 0.30 0.40 0.47 0.50 0.51 0.54 0.52 0.46 0.50 0.48 0.47 0.49 0.59 0.73 0.90 1.04 1.12 1.17 1.22 1.29 1.34 1.34 1.36 1.43 1.51 1.53 1.39 1.41 1.34 1.20 1.03 0.86 0.84 0.83 0.80
0.04 0.04 0.04 0.04 0.04 0.04 0.04 0.08 0.17 0.33 0.47 0.48 0.47 0.61 0.67 0.60 0.59 0.62 0.63 0.57 0.50 0.47 0.60 0.80 0.92 0.97 1.05 1.15 1.35 1.40 1.42 1.42 1.33 1.38 1.27 1.33 1.29 1.17 1.06 0.99 0.97 0.89 0.87
0.02 0.03 0.04 0.07 0.05 0.02 0.02 0.03 0.08 0.23 0.38 0.42 0.42 0.54 0.79 0.83 0.73 0.69 0.73 0.82 0.74 0.57 0.55 0.59 0.73 0.84 0.89 1.03 1.34 1.56 1.52 1.32 1.24 1.29 1.21 1.22 1.19 1.09 1.02 0.99 1.00 0.90 0.85
0.02 0.03 0.03 0.05 0.05 0.04 0.03 0.04 0.07 0.18 0.28 0.32 0.36 0.48 0.64 0.79 0.73 0.69 0.69 0.76 0.80 0.70 0.63 0.62 0.57 0.64 0.76 0.92 1.17 1.41 1.49 1.43 1.29 1.25 1.11 1.03 1.06 1.08 1.11 1.06 1.00 0.96 0.87
0.03 0.02 0.02 0.02 0.02 0.02 0.03 0.05 0.06 0.11 0.15 0.15 0.22 0.38 0.54 0.54 0.50 0.55 0.67 0.78 0.87 0.72 0.61 0.69 0.68 0.70 0.71 0.88 1.20 1.38 1.45 1.40 1.28 1.25 1.16 1.06 1.05 1.08 1.25 1.23 1.07 1.00 0.94